WJA1440 CYWG-KBNA

Flight info

Callsign WJA1440
Flight time 2h 16m
Altitude 35000
Route OMLOT DCT TUKAD DCT KP12G DCT SABBO DCT RANTS RYYMN3
Aircraft B738/M-SDE2E3FGHIRWXY/LB1

Departure

Time 2026-05-06 02:14
Airport Winnipeg / James Armstrong Richardson International Airport (CYWG)

Arrival

Time 2026-05-06 04:31
Airport Nashville International Airport (KBNA)
Time Latitude Longitude Altitude Speed Heading
2026-05-06 01:47 49.90681 -97.22557 782 ft 0 kts 170°
2026-05-06 02:00 49.90683 -97.22558 782 ft 2 kts 170°
2026-05-06 02:00 49.90699 -97.22562 782 ft 4 kts 174°
2026-05-06 02:00 49.90726 -97.22563 782 ft 4 kts 187°
2026-05-06 02:00 49.90751 -97.22553 782 ft 4 kts 218°
2026-05-06 02:01 49.90761 -97.22531 782 ft 0 kts 262°
2026-05-06 02:04 49.90761 -97.22532 782 ft 0 kts 262°
2026-05-06 02:04 49.90758 -97.22562 782 ft 5 kts 262°
2026-05-06 02:04 49.90752 -97.22625 782 ft 7 kts 258°
2026-05-06 02:05 49.90741 -97.22706 782 ft 9 kts 258°
2026-05-06 02:05 49.90726 -97.22811 782 ft 12 kts 252°
2026-05-06 02:05 49.90668 -97.22908 782 ft 13 kts 204°
2026-05-06 02:05 49.90575 -97.22909 782 ft 14 kts 162°
2026-05-06 02:06 49.90480 -97.22877 783 ft 14 kts 190°
2026-05-06 02:06 49.90391 -97.22923 784 ft 13 kts 198°
2026-05-06 02:06 49.90316 -97.22974 784 ft 10 kts 229°
2026-05-06 02:06 49.90319 -97.23077 783 ft 10 kts 285°
2026-05-06 02:07 49.90342 -97.23177 783 ft 10 kts 288°
2026-05-06 02:07 49.90361 -97.23266 783 ft 8 kts 288°
2026-05-06 02:07 49.90368 -97.23298 783 ft 0 kts 289°
2026-05-06 02:09 49.90368 -97.23299 783 ft 1 kts 289°
2026-05-06 02:09 49.90377 -97.23344 783 ft 6 kts 288°
2026-05-06 02:10 49.90387 -97.23409 783 ft 6 kts 266°
2026-05-06 02:10 49.90354 -97.23457 783 ft 8 kts 199°
2026-05-06 02:10 49.90295 -97.23434 787 ft 11 kts 141°
2026-05-06 02:10 49.90229 -97.23343 788 ft 14 kts 139°
2026-05-06 02:11 49.90150 -97.23236 787 ft 16 kts 139°
2026-05-06 02:11 49.90072 -97.23128 787 ft 15 kts 139°
2026-05-06 02:11 49.89994 -97.23021 784 ft 14 kts 139°
2026-05-06 02:11 49.89915 -97.22914 784 ft 15 kts 138°
2026-05-06 02:12 49.89838 -97.22807 783 ft 15 kts 137°
2026-05-06 02:12 49.89760 -97.22690 787 ft 15 kts 136°
2026-05-06 02:12 49.89691 -97.22592 786 ft 13 kts 144°
2026-05-06 02:12 49.89615 -97.22640 785 ft 13 kts 226°
2026-05-06 02:13 49.89555 -97.22745 785 ft 13 kts 229°
2026-05-06 02:13 49.89574 -97.22865 784 ft 14 kts 319°
2026-05-06 02:13 49.89779 -97.23146 782 ft 73 kts 319°
2026-05-06 02:13 49.90318 -97.23885 782 ft 133 kts 318°
2026-05-06 02:14 49.91108 -97.24960 1084 ft 156 kts 319°
2026-05-06 02:14 49.91905 -97.26049 2001 ft 154 kts 320°
2026-05-06 02:14 49.92734 -97.27187 2702 ft 161 kts 321°
2026-05-06 02:14 49.93619 -97.28376 3200 ft 181 kts 321°
2026-05-06 02:15 49.94611 -97.29728 3426 ft 204 kts 320°
2026-05-06 02:15 49.95779 -97.31112 3711 ft 222 kts 335°
2026-05-06 02:15 49.97358 -97.31477 4041 ft 240 kts
2026-05-06 02:15 49.98881 -97.30394 4822 ft 248 kts 38°
2026-05-06 02:16 50.00068 -97.28423 5693 ft 253 kts 46°
2026-05-06 02:16 50.01187 -97.26290 6522 ft 256 kts 47°
2026-05-06 02:16 50.02306 -97.24122 7304 ft 259 kts 47°
2026-05-06 02:16 50.03440 -97.21909 8047 ft 263 kts 47°
2026-05-06 02:17 50.04472 -97.19522 8784 ft 274 kts 65°
2026-05-06 02:17 50.04637 -97.16565 9504 ft 289 kts 98°
2026-05-06 02:17 50.03849 -97.13660 10217 ft 300 kts 121°
2026-05-06 02:17 50.02401 -97.11186 10504 ft 324 kts 141°
2026-05-06 02:18 50.00435 -97.09243 10724 ft 346 kts 150°
2026-05-06 02:18 49.98275 -97.07437 11174 ft 357 kts 152°
2026-05-06 02:18 49.96054 -97.05641 11863 ft 361 kts 152°
2026-05-06 02:18 49.93825 -97.03825 12622 ft 364 kts 151°
2026-05-06 02:19 49.91580 -97.01965 13334 ft 367 kts 150°
2026-05-06 02:19 49.89352 -97.00094 14011 ft 371 kts 150°
2026-05-06 02:19 49.87075 -96.98169 14657 ft 374 kts 150°
2026-05-06 02:19 49.84789 -96.96229 15326 ft 376 kts 150°
2026-05-06 02:20 49.80166 -96.92304 16633 ft 382 kts 150°
2026-05-06 02:20 49.77828 -96.90321 17273 ft 385 kts 150°
2026-05-06 02:20 49.75472 -96.88325 17910 ft 388 kts 150°
2026-05-06 02:21 49.73093 -96.86313 18509 ft 391 kts 150°
2026-05-06 02:21 49.70749 -96.84192 19029 ft 393 kts 143°
2026-05-06 02:21 49.68644 -96.81499 19567 ft 394 kts 132°
2026-05-06 02:21 49.66800 -96.78360 20114 ft 396 kts 129°
2026-05-06 02:22 49.65004 -96.75183 20650 ft 399 kts 129°
2026-05-06 02:22 49.63186 -96.71952 21192 ft 401 kts 129°
2026-05-06 02:22 49.61344 -96.68693 21704 ft 404 kts 129°
2026-05-06 02:22 49.59486 -96.65429 22197 ft 407 kts 130°
2026-05-06 02:23 49.57609 -96.62149 22686 ft 410 kts 130°
2026-05-06 02:23 49.55706 -96.58841 23181 ft 413 kts 130°
2026-05-06 02:23 49.53789 -96.55520 23588 ft 418 kts 130°
2026-05-06 02:23 49.51852 -96.52171 23972 ft 421 kts 130°
2026-05-06 02:24 49.49898 -96.48798 24384 ft 422 kts 130°
2026-05-06 02:24 49.47961 -96.45459 24780 ft 425 kts 130°
2026-05-06 02:24 49.45987 -96.42061 25148 ft 427 kts 130°
2026-05-06 02:24 49.43999 -96.38643 25506 ft 430 kts 131°
2026-05-06 02:25 49.41997 -96.35205 25864 ft 433 kts 131°
2026-05-06 02:25 49.39983 -96.31750 26215 ft 435 kts 131°
2026-05-06 02:25 49.37957 -96.28280 26567 ft 438 kts 131°
2026-05-06 02:25 49.35918 -96.24792 26925 ft 440 kts 131°
2026-05-06 02:26 49.33863 -96.21280 27219 ft 444 kts 131°
2026-05-06 02:26 49.31793 -96.17749 27537 ft 446 kts 131°
2026-05-06 02:26 49.29741 -96.14254 27861 ft 449 kts 131°
2026-05-06 02:26 49.27646 -96.10689 28179 ft 451 kts 131°
2026-05-06 02:27 49.25540 -96.07111 28480 ft 454 kts 131°
2026-05-06 02:27 49.23420 -96.03513 28779 ft 456 kts 131°
2026-05-06 02:27 49.21291 -95.99903 29091 ft 458 kts 131°
2026-05-06 02:27 49.19151 -95.96280 29402 ft 460 kts 132°
2026-05-06 02:28 49.17003 -95.92650 29678 ft 462 kts 132°
2026-05-06 02:28 49.14722 -95.89172 29893 ft 465 kts 140°
2026-05-06 02:28 49.12134 -95.86301 30102 ft 467 kts 149°
2026-05-06 02:28 49.09360 -95.83761 30385 ft 467 kts 150°
2026-05-06 02:29 49.06563 -95.81252 30691 ft 466 kts 150°
2026-05-06 02:29 49.03764 -95.78746 30975 ft 467 kts 150°
2026-05-06 02:29 49.00970 -95.76232 31212 ft 467 kts 150°
2026-05-06 02:29 48.98176 -95.73701 31475 ft 468 kts 150°
2026-05-06 02:30 48.95391 -95.71166 31760 ft 468 kts 150°
2026-05-06 02:30 48.92607 -95.68623 32046 ft 467 kts 150°
2026-05-06 02:30 48.89815 -95.66071 32276 ft 468 kts 150°
2026-05-06 02:30 48.87020 -95.63518 32501 ft 469 kts 150°
2026-05-06 02:31 48.84258 -95.60998 32786 ft 469 kts 150°
2026-05-06 02:31 48.81461 -95.58449 33060 ft 469 kts 150°
2026-05-06 02:31 48.78662 -95.55902 33302 ft 470 kts 150°
2026-05-06 02:31 48.75854 -95.53351 33533 ft 470 kts 150°
2026-05-06 02:32 48.73046 -95.50804 33785 ft 470 kts 150°
2026-05-06 02:32 48.70242 -95.48265 34038 ft 470 kts 150°
2026-05-06 02:32 48.67429 -95.45720 34229 ft 471 kts 151°
2026-05-06 02:32 48.64612 -95.43175 34398 ft 472 kts 151°
2026-05-06 02:33 48.61832 -95.40667 34600 ft 472 kts 151°
2026-05-06 02:33 48.59929 -95.38952 34747 ft 471 kts 151°
2026-05-06 02:34 48.50550 -95.30522 35037 ft 475 kts 151°
2026-05-06 02:34 48.44894 -95.25455 35039 ft 472 kts 151°
2026-05-06 02:35 48.39275 -95.20434 35047 ft 469 kts 151°
2026-05-06 02:35 48.33706 -95.15471 35059 ft 467 kts 151°
2026-05-06 02:36 48.28118 -95.10505 35032 ft 466 kts 152°
2026-05-06 02:36 48.22548 -95.05568 35049 ft 466 kts 152°
2026-05-06 02:37 48.16951 -95.00619 35045 ft 467 kts 152°
2026-05-06 02:37 48.11349 -94.95679 35033 ft 469 kts 152°
2026-05-06 02:38 48.05749 -94.90753 35039 ft 471 kts 152°
2026-05-06 02:38 48.00091 -94.85788 35045 ft 473 kts 152°
2026-05-06 02:39 47.94407 -94.80813 35043 ft 475 kts 152°
2026-05-06 02:39 47.88699 -94.75830 35030 ft 476 kts 153°
2026-05-06 02:40 47.83021 -94.70885 35035 ft 477 kts 153°
2026-05-06 02:40 47.77292 -94.65910 35034 ft 477 kts 153°
2026-05-06 02:41 47.71558 -94.60941 35040 ft 477 kts 153°
2026-05-06 02:41 47.65830 -94.55992 35032 ft 476 kts 153°
2026-05-06 02:42 47.60111 -94.51063 35030 ft 475 kts 153°
2026-05-06 02:42 47.54456 -94.46202 35029 ft 474 kts 153°
2026-05-06 02:43 47.48760 -94.41318 35014 ft 473 kts 154°
2026-05-06 02:43 47.43074 -94.36454 35022 ft 472 kts 154°
2026-05-06 02:44 47.37395 -94.31609 35027 ft 471 kts 154°
2026-05-06 02:44 47.31761 -94.26815 35026 ft 471 kts 154°
2026-05-06 02:45 47.26090 -94.22000 35018 ft 470 kts 154°
2026-05-06 02:45 47.20417 -94.17197 35022 ft 470 kts 154°
2026-05-06 02:46 47.14742 -94.12403 35023 ft 471 kts 154°
2026-05-06 02:46 47.09063 -94.07616 34980 ft 471 kts 155°
2026-05-06 02:47 47.03413 -94.02866 34991 ft 471 kts 155°
2026-05-06 02:47 46.97726 -93.98135 34998 ft 471 kts 156°
2026-05-06 02:48 46.91956 -93.93579 35005 ft 471 kts 157°
2026-05-06 02:48 46.86171 -93.89075 35003 ft 471 kts 158°
2026-05-06 02:49 46.80423 -93.84588 35017 ft 472 kts 157°
2026-05-06 02:49 46.74638 -93.80062 35014 ft 472 kts 157°
2026-05-06 02:50 46.68841 -93.75532 35016 ft 473 kts 157°
2026-05-06 02:50 46.63042 -93.71010 34989 ft 473 kts 157°
2026-05-06 02:51 46.57240 -93.66497 34988 ft 473 kts 158°
2026-05-06 02:51 46.51505 -93.62047 34994 ft 473 kts 158°
2026-05-06 02:52 46.45706 -93.57560 34981 ft 472 kts 158°
2026-05-06 02:52 46.39905 -93.53081 35000 ft 472 kts 158°
2026-05-06 02:53 46.34104 -93.48615 35000 ft 472 kts 158°
2026-05-06 02:53 46.28295 -93.44152 34985 ft 472 kts 158°
2026-05-06 02:54 46.22526 -93.39731 34993 ft 473 kts 158°
2026-05-06 02:54 46.16714 -93.35287 35004 ft 473 kts 158°
2026-05-06 02:55 46.10904 -93.30856 34976 ft 473 kts 159°
2026-05-06 02:55 46.05087 -93.26429 35002 ft 473 kts 159°
2026-05-06 02:56 45.99319 -93.22051 35020 ft 473 kts 159°
2026-05-06 02:56 45.93489 -93.17637 35016 ft 473 kts 159°
2026-05-06 02:57 45.87665 -93.13236 35005 ft 473 kts 160°
2026-05-06 02:57 45.81863 -93.08863 35007 ft 472 kts 160°
2026-05-06 02:58 45.76089 -93.04523 35004 ft 472 kts 160°
2026-05-06 02:58 45.70291 -93.00173 34979 ft 471 kts 160°
2026-05-06 02:59 45.64473 -92.95819 34985 ft 471 kts 160°
2026-05-06 02:59 45.58679 -92.91494 34992 ft 470 kts 160°
2026-05-06 03:00 45.52880 -92.87175 34958 ft 470 kts 161°
2026-05-06 03:00 45.47124 -92.82897 34975 ft 469 kts 161°
2026-05-06 03:01 45.41331 -92.78603 34997 ft 469 kts 161°
2026-05-06 03:01 45.35551 -92.74329 34998 ft 470 kts 161°
2026-05-06 03:02 45.29759 -92.70054 35007 ft 469 kts 162°
2026-05-06 03:02 45.23964 -92.65788 35007 ft 469 kts 162°
2026-05-06 03:03 45.18200 -92.61555 34974 ft 469 kts 162°
2026-05-06 03:03 45.12404 -92.57307 34968 ft 469 kts 162°
2026-05-06 03:04 45.06600 -92.53063 34973 ft 469 kts 162°
2026-05-06 03:04 45.00801 -92.48834 34971 ft 469 kts 162°
2026-05-06 03:05 44.95042 -92.44642 34941 ft 469 kts 163°
2026-05-06 03:05 44.89244 -92.40432 34947 ft 469 kts 163°
2026-05-06 03:06 44.83444 -92.36230 34958 ft 469 kts 163°
2026-05-06 03:06 44.77663 -92.32051 34959 ft 468 kts 163°
2026-05-06 03:07 44.71908 -92.27890 34952 ft 468 kts 163°
2026-05-06 03:07 44.66109 -92.23720 34956 ft 468 kts 163°
2026-05-06 03:08 44.60320 -92.19570 34952 ft 467 kts 163°
2026-05-06 03:08 44.54532 -92.15467 34958 ft 465 kts 163°
2026-05-06 03:09 44.48810 -92.11389 34957 ft 465 kts 163°
2026-05-06 03:09 44.43047 -92.07244 34946 ft 466 kts 163°
2026-05-06 03:10 44.37283 -92.03125 34933 ft 465 kts 164°
2026-05-06 03:10 44.31517 -91.99028 34941 ft 465 kts 164°
2026-05-06 03:11 44.25739 -91.94938 34953 ft 466 kts 164°
2026-05-06 03:11 44.19982 -91.90872 34899 ft 467 kts 165°
2026-05-06 03:12 44.14183 -91.86786 34951 ft 468 kts 165°
2026-05-06 03:12 44.08366 -91.82690 34951 ft 469 kts 165°
2026-05-06 03:13 44.02542 -91.78547 34975 ft 472 kts 164°
2026-05-06 03:13 43.96702 -91.74417 34957 ft 470 kts 165°
2026-05-06 03:14 43.90882 -91.70408 34948 ft 471 kts 165°
2026-05-06 03:14 43.85022 -91.66349 34956 ft 470 kts 165°
2026-05-06 03:15 43.79175 -91.62282 34927 ft 470 kts 165°
2026-05-06 03:15 43.73340 -91.58232 34931 ft 469 kts 165°
2026-05-06 03:16 43.67570 -91.54231 34943 ft 467 kts 165°
2026-05-06 03:16 43.61761 -91.50211 34890 ft 466 kts 165°
2026-05-06 03:17 43.55970 -91.46212 34935 ft 465 kts 165°
2026-05-06 03:17 43.50195 -91.42231 34940 ft 464 kts 165°
2026-05-06 03:18 43.44448 -91.38291 34942 ft 464 kts 165°
2026-05-06 03:18 43.38702 -91.34353 34938 ft 463 kts 165°
2026-05-06 03:19 43.32944 -91.30414 34941 ft 462 kts 165°
2026-05-06 03:19 43.27194 -91.26501 34942 ft 461 kts 166°
2026-05-06 03:20 43.18637 -91.20660 34944 ft 459 kts 166°
2026-05-06 03:20 43.12908 -91.16771 34945 ft 459 kts 166°
2026-05-06 03:21 43.07157 -91.13024 34960 ft 457 kts 167°
2026-05-06 03:21 43.01381 -91.09359 34933 ft 458 kts 168°
2026-05-06 03:22 42.95648 -91.05716 34958 ft 458 kts 168°
2026-05-06 03:22 42.89865 -91.02035 34960 ft 459 kts 168°
2026-05-06 03:23 42.84067 -90.98352 34943 ft 460 kts 168°
2026-05-06 03:23 42.78257 -90.94664 34949 ft 461 kts 168°
2026-05-06 03:24 42.72439 -90.90975 34936 ft 462 kts 168°
2026-05-06 03:24 42.66647 -90.87311 34934 ft 462 kts 168°
2026-05-06 03:25 42.60812 -90.83625 34892 ft 462 kts 168°
2026-05-06 03:25 42.54992 -90.79955 34934 ft 461 kts 168°
2026-05-06 03:26 42.49211 -90.76330 34937 ft 460 kts 168°
2026-05-06 03:26 42.43420 -90.72694 34939 ft 460 kts 168°
2026-05-06 03:27 42.37625 -90.69062 34923 ft 458 kts 169°
2026-05-06 03:27 42.31841 -90.65445 34935 ft 458 kts 169°
2026-05-06 03:28 42.26101 -90.61867 34940 ft 457 kts 169°
2026-05-06 03:28 42.20331 -90.58277 34934 ft 457 kts 169°
2026-05-06 03:29 42.14577 -90.54703 34921 ft 456 kts 169°
2026-05-06 03:29 42.08816 -90.51133 34934 ft 455 kts 169°
2026-05-06 03:30 42.03057 -90.47571 34938 ft 455 kts 169°
2026-05-06 03:30 41.97338 -90.44042 34897 ft 456 kts 170°
2026-05-06 03:31 41.91588 -90.40499 34930 ft 455 kts 170°
2026-05-06 03:31 41.85819 -90.36954 34930 ft 456 kts 170°
2026-05-06 03:32 41.80041 -90.33410 34941 ft 457 kts 170°
2026-05-06 03:32 41.74299 -90.29895 34931 ft 458 kts 171°
2026-05-06 03:33 41.68494 -90.26347 34933 ft 459 kts 171°
2026-05-06 03:33 41.62675 -90.22798 34935 ft 461 kts 171°
2026-05-06 03:34 41.56832 -90.19242 34921 ft 462 kts 171°
2026-05-06 03:34 41.51023 -90.15710 34907 ft 462 kts 171°
2026-05-06 03:35 41.45157 -90.12153 34916 ft 463 kts 171°
2026-05-06 03:35 41.39290 -90.08603 34917 ft 464 kts 171°
2026-05-06 03:36 41.33416 -90.05054 34880 ft 464 kts 171°
2026-05-06 03:36 41.27534 -90.01508 34904 ft 464 kts 171°
2026-05-06 03:37 41.21691 -89.97994 34915 ft 464 kts 171°
2026-05-06 03:37 41.15796 -89.94456 34926 ft 465 kts 171°
2026-05-06 03:38 41.09894 -89.90920 34900 ft 466 kts 171°
2026-05-06 03:38 41.03977 -89.87383 34915 ft 467 kts 171°
2026-05-06 03:39 40.98077 -89.83863 34927 ft 469 kts 171°
2026-05-06 03:39 40.92110 -89.80311 34926 ft 471 kts 171°
2026-05-06 03:40 40.86130 -89.76756 34923 ft 472 kts 171°
2026-05-06 03:40 40.80125 -89.73193 34930 ft 474 kts 171°
2026-05-06 03:41 40.74098 -89.69625 34949 ft 475 kts 171°
2026-05-06 03:41 40.68100 -89.66079 34946 ft 476 kts 171°
2026-05-06 03:42 40.62048 -89.62509 34942 ft 476 kts 171°
2026-05-06 03:42 40.56003 -89.58947 34938 ft 476 kts 171°
2026-05-06 03:43 40.49969 -89.55401 34939 ft 475 kts 171°
2026-05-06 03:43 40.43984 -89.51892 34926 ft 473 kts 171°
2026-05-06 03:44 40.37989 -89.48384 34942 ft 472 kts 171°
2026-05-06 03:44 40.31994 -89.44885 34952 ft 471 kts 172°
2026-05-06 03:45 40.26004 -89.41396 34959 ft 471 kts 172°
2026-05-06 03:45 40.20021 -89.37915 34966 ft 470 kts 172°
2026-05-06 03:46 40.14069 -89.34461 34965 ft 471 kts 172°
2026-05-06 03:46 40.08089 -89.30998 34963 ft 472 kts 172°
2026-05-06 03:47 40.02075 -89.27522 34893 ft 473 kts 171°
2026-05-06 03:47 39.96062 -89.24050 34924 ft 473 kts 171°
2026-05-06 03:48 39.90077 -89.20603 34924 ft 473 kts 171°
2026-05-06 03:48 39.84039 -89.17132 34932 ft 475 kts 171°
2026-05-06 03:49 39.77984 -89.13658 34914 ft 476 kts 171°
2026-05-06 03:49 39.71932 -89.10189 34941 ft 476 kts 171°
2026-05-06 03:50 39.65874 -89.06726 34955 ft 476 kts 171°
2026-05-06 03:50 39.59850 -89.03289 34942 ft 476 kts 171°
2026-05-06 03:51 39.53795 -88.99839 34928 ft 474 kts 171°
2026-05-06 03:51 39.47778 -88.96416 34928 ft 473 kts 171°
2026-05-06 03:52 39.41756 -88.93000 34933 ft 472 kts 171°
2026-05-06 03:52 39.35749 -88.89600 34932 ft 471 kts 171°
2026-05-06 03:53 39.29798 -88.86235 34939 ft 468 kts 170°
2026-05-06 03:53 39.23830 -88.82870 34941 ft 468 kts 170°
2026-05-06 03:54 39.17872 -88.79517 34947 ft 468 kts 170°
2026-05-06 03:54 39.11892 -88.76159 34937 ft 469 kts 170°
2026-05-06 03:55 39.05960 -88.72831 34925 ft 469 kts 170°
2026-05-06 03:55 38.99962 -88.69475 34929 ft 471 kts 170°
2026-05-06 03:56 38.93944 -88.66113 34938 ft 473 kts 170°
2026-05-06 03:56 38.87903 -88.62744 34894 ft 474 kts 170°
2026-05-06 03:57 38.81883 -88.59389 34919 ft 475 kts 170°
2026-05-06 03:57 38.75817 -88.56018 34936 ft 476 kts 170°
2026-05-06 03:58 38.69740 -88.52646 34926 ft 476 kts 170°
2026-05-06 03:58 38.63658 -88.49277 34908 ft 476 kts 170°
2026-05-06 03:59 38.57592 -88.45921 34955 ft 475 kts 170°
2026-05-06 03:59 38.51529 -88.42577 34934 ft 475 kts 171°
2026-05-06 04:00 38.45507 -88.39261 34937 ft 475 kts 171°
2026-05-06 04:00 38.39443 -88.35929 34950 ft 474 kts 171°
2026-05-06 04:01 38.33379 -88.32602 34944 ft 475 kts 171°
2026-05-06 04:01 38.27313 -88.29280 34935 ft 474 kts 171°
2026-05-06 04:02 38.21288 -88.25986 34923 ft 474 kts 171°
2026-05-06 04:02 38.15228 -88.22679 34861 ft 474 kts 170°
2026-05-06 04:03 38.09147 -88.19371 34629 ft 478 kts 170°
2026-05-06 04:03 38.06095 -88.17711 34428 ft 476 kts 170°
2026-05-06 04:03 38.03056 -88.16056 34238 ft 475 kts 170°
2026-05-06 04:04 38.01051 -88.14965 34108 ft 475 kts 170°
2026-05-06 04:04 37.97019 -88.12779 33748 ft 476 kts 169°
2026-05-06 04:04 37.93968 -88.11128 33463 ft 477 kts 169°
2026-05-06 04:04 37.90909 -88.09472 33137 ft 478 kts 169°
2026-05-06 04:05 37.87848 -88.07817 32838 ft 479 kts 169°
2026-05-06 04:05 37.84788 -88.06162 32561 ft 479 kts 169°
2026-05-06 04:05 37.81720 -88.04505 32285 ft 479 kts 169°
2026-05-06 04:05 37.79693 -88.03410 32107 ft 479 kts 169°
2026-05-06 04:06 37.76626 -88.01755 31833 ft 479 kts 168°
2026-05-06 04:06 37.72535 -87.99550 31473 ft 478 kts 168°
2026-05-06 04:06 37.69515 -87.97925 31158 ft 478 kts 168°
2026-05-06 04:06 37.66461 -87.96282 30896 ft 477 kts 168°
2026-05-06 04:07 37.63408 -87.94643 30646 ft 476 kts 168°
2026-05-06 04:07 37.60362 -87.93008 30395 ft 476 kts 168°
2026-05-06 04:07 37.58349 -87.91928 30222 ft 476 kts 167°
2026-05-06 04:07 37.54275 -87.89746 29872 ft 476 kts 167°
2026-05-06 04:08 37.52258 -87.88667 29682 ft 476 kts 167°
2026-05-06 04:08 37.49209 -87.87037 29381 ft 476 kts 167°
2026-05-06 04:08 37.46158 -87.85407 29084 ft 476 kts 167°
2026-05-06 04:08 37.43130 -87.83785 28823 ft 466 kts 166°
2026-05-06 04:09 37.39299 -87.81718 28532 ft 440 kts 167°
2026-05-06 04:09 37.36545 -87.80238 28398 ft 421 kts 167°
2026-05-06 04:09 37.34787 -87.79298 28291 ft 409 kts 168°
2026-05-06 04:09 37.32197 -87.77926 27846 ft 401 kts 168°
2026-05-06 04:10 37.29633 -87.76579 27200 ft 398 kts 168°
2026-05-06 04:10 37.27082 -87.75236 26568 ft 397 kts 168°
2026-05-06 04:10 37.24552 -87.73896 25992 ft 393 kts 168°
2026-05-06 04:10 37.22045 -87.72549 25455 ft 392 kts 165°
2026-05-06 04:11 37.19134 -87.69680 24618 ft 418 kts 136°
2026-05-06 04:11 37.17918 -87.67754 24317 ft 416 kts 135°
2026-05-06 04:11 37.16167 -87.64888 23834 ft 412 kts 134°
2026-05-06 04:11 37.14463 -87.62074 23333 ft 409 kts 134°
2026-05-06 04:12 37.12743 -87.59245 22727 ft 406 kts 135°
2026-05-06 04:12 37.11029 -87.56451 22189 ft 402 kts 135°
2026-05-06 04:12 37.09332 -87.53707 21663 ft 397 kts 135°
2026-05-06 04:12 37.07641 -87.50988 21144 ft 393 kts 135°
2026-05-06 04:13 37.05968 -87.48308 20623 ft 389 kts 135°
2026-05-06 04:13 37.04305 -87.45648 20120 ft 386 kts 135°
2026-05-06 04:13 37.02658 -87.43016 19660 ft 381 kts 135°
2026-05-06 04:13 37.01032 -87.40421 19275 ft 377 kts 135°
2026-05-06 04:14 36.99445 -87.37889 18918 ft 373 kts 135°
2026-05-06 04:14 36.97851 -87.35348 18538 ft 370 kts 135°
2026-05-06 04:14 36.96269 -87.32830 18196 ft 367 kts 135°
2026-05-06 04:14 36.94684 -87.30315 17764 ft 370 kts 134°
2026-05-06 04:15 36.93087 -87.27780 17395 ft 372 kts 134°
2026-05-06 04:15 36.91491 -87.25241 17025 ft 371 kts 134°
2026-05-06 04:15 36.89904 -87.22710 16656 ft 369 kts 134°
2026-05-06 04:15 36.88318 -87.20193 16265 ft 368 kts 134°
2026-05-06 04:16 36.86755 -87.17718 15950 ft 366 kts 134°
2026-05-06 04:16 36.85188 -87.15235 15668 ft 363 kts 134°
2026-05-06 04:16 36.83628 -87.12765 15327 ft 362 kts 134°
2026-05-06 04:16 36.82033 -87.10353 14967 ft 357 kts 142°
2026-05-06 04:17 36.80035 -87.08656 14569 ft 343 kts 162°
2026-05-06 04:17 36.77894 -87.07374 14171 ft 340 kts 162°
2026-05-06 04:17 36.75791 -87.06000 13744 ft 346 kts 152°
2026-05-06 04:17 36.73880 -87.04162 13307 ft 348 kts 147°
2026-05-06 04:18 36.72051 -87.02245 12850 ft 347 kts 146°
2026-05-06 04:18 36.70221 -87.00292 12418 ft 345 kts 146°
2026-05-06 04:18 36.68426 -86.98352 12118 ft 339 kts 146°
2026-05-06 04:18 36.66662 -86.96431 11728 ft 336 kts 146°
2026-05-06 04:19 36.64901 -86.94511 11321 ft 335 kts 146°
2026-05-06 04:19 36.63169 -86.92606 11034 ft 329 kts 146°
2026-05-06 04:19 36.61474 -86.90727 10685 ft 324 kts 146°
2026-05-06 04:19 36.59811 -86.88870 10303 ft 318 kts 146°
2026-05-06 04:20 36.58175 -86.87037 9921 ft 314 kts 146°
2026-05-06 04:20 36.56570 -86.85279 9539 ft 309 kts 147°
2026-05-06 04:20 36.54951 -86.83546 9127 ft 306 kts 148°
2026-05-06 04:20 36.53347 -86.81829 8727 ft 303 kts 148°
2026-05-06 04:21 36.51755 -86.80119 8333 ft 301 kts 148°
2026-05-06 04:21 36.50178 -86.78417 7949 ft 299 kts 147°
2026-05-06 04:21 36.48614 -86.76729 7558 ft 297 kts 148°
2026-05-06 04:21 36.47066 -86.75058 7186 ft 294 kts 148°
2026-05-06 04:22 36.45525 -86.73391 6794 ft 293 kts 148°
2026-05-06 04:22 36.44000 -86.71732 6403 ft 287 kts 148°
2026-05-06 04:22 36.42565 -86.70147 6008 ft 273 kts 147°
2026-05-06 04:23 36.39926 -86.67123 5281 ft 243 kts 149°
2026-05-06 04:23 36.38716 -86.65776 4908 ft 227 kts 149°
2026-05-06 04:23 36.37604 -86.64467 4555 ft 213 kts 149°
2026-05-06 04:23 36.36422 -86.63858 3981 ft 173 kts 191°
2026-05-06 04:24 36.35258 -86.63632 3633 ft 178 kts 171°
2026-05-06 04:24 36.34118 -86.63096 3391 ft 177 kts 170°
2026-05-06 04:24 36.33082 -86.62218 3064 ft 186 kts 144°
2026-05-06 04:24 36.32228 -86.61227 2986 ft 147 kts 173°
2026-05-06 04:25 36.31319 -86.61323 3051 ft 134 kts 198°
2026-05-06 04:25 36.30452 -86.61518 3015 ft 118 kts 195°
2026-05-06 04:25 36.29690 -86.61719 3002 ft 109 kts 202°
2026-05-06 04:25 36.28948 -86.61998 3011 ft 114 kts 198°
2026-05-06 04:26 36.28181 -86.62243 3015 ft 113 kts 200°
2026-05-06 04:26 36.27422 -86.62518 3012 ft 113 kts 203°
2026-05-06 04:26 36.26663 -86.62805 3009 ft 114 kts 201°
2026-05-06 04:26 36.25913 -86.63087 2993 ft 111 kts 201°
2026-05-06 04:27 36.25178 -86.63355 2897 ft 109 kts 200°
2026-05-06 04:27 36.24470 -86.63685 2773 ft 111 kts 205°
2026-05-06 04:27 36.23711 -86.63978 2623 ft 116 kts 201°
2026-05-06 04:27 36.22935 -86.64264 2466 ft 117 kts 199°
2026-05-06 04:28 36.22157 -86.64559 2317 ft 118 kts 199°
2026-05-06 04:28 36.21391 -86.64862 2145 ft 116 kts 197°
2026-05-06 04:28 36.20625 -86.65158 2014 ft 117 kts 199°
2026-05-06 04:28 36.19835 -86.65473 1842 ft 119 kts 198°
2026-05-06 04:29 36.19033 -86.65802 1672 ft 128 kts 196°
2026-05-06 04:29 36.18198 -86.66133 1527 ft 127 kts 197°
2026-05-06 04:29 36.17322 -86.66471 1363 ft 131 kts 198°
2026-05-06 04:29 36.16425 -86.66833 1189 ft 138 kts 197°
2026-05-06 04:30 36.15483 -86.67187 1010 ft 145 kts 198°
2026-05-06 04:30 36.14538 -86.67564 817 ft 138 kts 201°
2026-05-06 04:30 36.13636 -86.67912 579 ft 131 kts 198°
2026-05-06 04:30 36.12939 -86.68188 578 ft 61 kts 197°
2026-05-06 04:31 36.12647 -86.68303 574 ft 35 kts 197°
2026-05-06 04:31 36.12420 -86.68393 568 ft 33 kts 198°
2026-05-06 04:31 36.12219 -86.68472 570 ft 28 kts 199°
2026-05-06 04:31 36.12150 -86.68422 571 ft 12 kts 107°
2026-05-06 04:32 36.12128 -86.68333 575 ft 9 kts 93°
2026-05-06 04:32 36.12171 -86.68281 574 ft 9 kts 17°
2026-05-06 04:32 36.12237 -86.68259 573 ft 11 kts 15°
2026-05-06 04:32 36.12327 -86.68227 572 ft 15 kts 16°
2026-05-06 04:33 36.12432 -86.68189 574 ft 15 kts 16°
2026-05-06 04:33 36.12534 -86.68153 578 ft 14 kts 16°
2026-05-06 04:33 36.12636 -86.68117 576 ft 16 kts 16°
2026-05-06 04:33 36.12738 -86.68080 581 ft 15 kts 16°
2026-05-06 04:34 36.12836 -86.68043 579 ft 15 kts 17°
2026-05-06 04:34 36.12926 -86.67979 577 ft 16 kts 88°
2026-05-06 04:34 36.12856 -86.67871 575 ft 17 kts 133°
2026-05-06 04:34 36.12776 -86.67768 571 ft 16 kts 134°
2026-05-06 04:35 36.12733 -86.67655 578 ft 14 kts 95°
2026-05-06 04:35 36.12726 -86.67540 574 ft 12 kts 95°
2026-05-06 04:35 36.12722 -86.67455 575 ft 8 kts 88°
2026-05-06 04:35 36.12749 -86.67394 574 ft 10 kts 43°
2026-05-06 04:36 36.12809 -86.67326 573 ft 14 kts 43°
2026-05-06 04:36 36.12885 -86.67253 568 ft 12 kts 11°
2026-05-06 04:36 36.12960 -86.67208 568 ft 13 kts 44°
2026-05-06 04:36 36.13033 -86.67157 571 ft 13 kts 351°
2026-05-06 04:37 36.13117 -86.67189 571 ft 12 kts 342°
2026-05-06 04:37 36.13192 -86.67178 568 ft 5 kts 24°
2026-05-06 04:37 36.13207 -86.67170 571 ft 2 kts 25°
2026-05-06 04:37 36.13216 -86.67165 572 ft 1 kts 25°
2026-05-06 04:38 36.13218 -86.67163 568 ft 0 kts 25°
2026-05-06 04:38 36.13220 -86.67162 568 ft 0 kts 25°